This is the latest recevied weather packets stored in our database for station/object CT2IRJ-11. If no packets are shown the sender has not sent any weather packets the latest 10 day(s).
| Time | Temp. | Humidity | Pressure | Rain* | Wind** | Luminosity | Snow |
|---|---|---|---|---|---|---|---|
| 1777184609 | 13.33° C | 91% | 1016.6 hPa | 0 mm | - | 32 W/m² | - |
| 1777184309 | 13.33° C | 91% | 1016.6 hPa | 0 mm | - | 28 W/m² | - |
| 1777184009 | 13.33° C | 91% | 1016.6 hPa | 0 mm | - | 25 W/m² | - |
| 1777183709 | 13.33° C | 91% | 1016.6 hPa | 0 mm | - | 20 W/m² | - |
| 1777183410 | 13.33° C | 91% | 1016.3 hPa | 0 mm | - | 16 W/m² | - |
| 1777183109 | 13.33° C | 91% | 1015.9 hPa | 0 mm | - | 11 W/m² | - |
| 1777182809 | 12.78° C | 91% | 1015.9 hPa | 0 mm | - | 7 W/m² | - |
| 1777182509 | 12.78° C | 91% | 1015.9 hPa | 0 mm | - | 3 W/m² | - |
| 1777182209 | 12.78° C | 91% | 1016.3 hPa | 0 mm | - | 2 W/m² | - |
| 1777181910 | 12.78° C | 91% | 1015.9 hPa | 0 mm | - | 0 W/m² | - |
| 1777181609 | 12.78° C | 91% | 1015.9 hPa | 0 mm | - | 0 W/m² | - |
| 1777181310 | 12.78° C | 91% | 1015.6 hPa | 0 mm | - | 0 W/m² | - |
| 1777181010 | 13.33° C | 91% | 1015.9 hPa | 0 mm | - | 0 W/m² | - |
| 1777180710 | 12.78° C | 91% | 1015.9 hPa | 0 mm | - | 0 W/m² | - |
| 1777180409 | 12.78° C | 91% | 1015.6 hPa | 0 mm | - | 0 W/m² | - |
| 1777180110 | 12.78° C | 90% | 1015.6 hPa | 0 mm | - | 0 W/m² | - |
| 1777179810 | 12.78° C | 90% | 1015.6 hPa | 0 mm | - | 0 W/m² | - |
| 1777179510 | 12.78° C | 90% | 1015.6 hPa | 0 mm | - | 0 W/m² | - |
| 1777179209 | 13.33° C | 90% | 1015.6 hPa | 0 mm | - | 0 W/m² | - |
| 1777178909 | 13.33° C | 90% | 1015.6 hPa | 0 mm | - | 0 W/m² | - |
| 1777178609 | 13.33° C | 90% | 1015.6 hPa | 0 mm | - | 0 W/m² | - |
| 1777178310 | 13.33° C | 90% | 1015.6 hPa | 0 mm | - | 0 W/m² | - |
| 1777178010 | 13.33° C | 90% | 1015.6 hPa | 0 mm | - | 0 W/m² | - |
| 1777177710 | 13.33° C | 89% | 1015.6 hPa | 0 mm | - | 0 W/m² | - |
| 1777177409 | 13.33° C | 89% | 1015.6 hPa | 0 mm | - | 0 W/m² | - |
* Rain latest hour (hover to see other rain measurements)
** Current wind speed in m/s (hover to see current wind gust speed)